Date String (YYYY-MM-DD hh:mm:ss) UTC,Instrument flags,Ambient pressure (hPa),Sample flow (lpm),Bypass flow (lpm),Sample temperature (°C),Ambient temperature (°C),ASC tube jacket temperature (°C),LED temperature (°C),Box temperature (°C),Sample RH (%),Span deviation,Mass concentration (μg/m³),Mass concentration (μg/m³),Mass concentration (μg/m³)
DateTimeUTC,F1_M11,P_M11,Q1_M11,Q2_M11,T1_M11,T2_M11,T3_M11,T4_M11,T5_M11,U1_M11,ZSPAN_M11,X0_M11,X2_M11,X1_M11
2022-03-07 21:00:00,,0826.8,5.00,0.00,21.9,21.3,00.0,30.9,23.7,08.3,0000.0,0008.91,0005.08,0004.91
2022-03-07 21:01:00,,0826.8,5.00,0.00,21.9,21.3,00.0,30.9,23.7,08.1,0000.0,0008.90,0005.08,0004.91
2022-03-07 21:02:00,,0826.8,5.00,0.00,21.9,21.3,00.0,30.9,23.7,08.1,0000.0,0008.87,0005.08,0004.91
2022-03-07 21:03:00,,0826.7,4.99,0.00,21.9,21.3,00.0,30.9,23.7,08.1,0000.0,0008.98,0005.07,0004.91
2022-03-07 21:04:00,,0826.7,5.01,0.00,21.9,21.4,00.0,30.9,23.7,08.2,0000.0,0009.17,0005.07,0004.91
2022-03-07 21:05:00,,0826.8,5.00,0.00,22.0,21.4,00.0,30.9,23.8,08.2,0000.0,0009.17,0005.07,0004.90
2022-03-07 21:06:00,,0826.8,5.00,0.00,22.0,21.4,00.0,31.0,23.8,07.9,0000.0,0009.17,0005.06,0004.89
2022-03-07 21:07:00,,0826.7,4.99,0.00,22.0,21.4,00.0,31.0,23.8,07.8,0000.0,0009.12,0005.08,0004.90
2022-03-07 21:08:00,,0826.8,5.00,0.00,22.0,21.5,00.0,31.0,23.8,08.0,0000.0,0008.61,0005.11,0004.92
2022-03-07 21:09:00,,0826.7,5.00,0.00,22.0,21.5,00.0,31.0,23.8,08.1,0000.0,0008.37,0005.13,0004.94
2022-03-07 21:10:00,,0826.7,5.00,0.00,22.0,21.5,00.0,31.0,23.8,07.8,0000.0,0008.46,0005.15,0004.95
2022-03-07 21:11:00,,0826.7,5.00,0.00,22.0,21.4,00.0,31.0,23.8,08.0,0000.0,0008.50,0005.19,0004.98
2022-03-07 21:12:00,,0826.8,5.01,0.00,22.0,21.4,00.0,31.0,23.8,08.3,0000.0,0008.49,0005.19,0004.99
2022-03-07 21:13:00,,0826.7,5.00,0.00,22.0,21.3,00.0,31.0,23.7,08.0,0000.0,0008.33,0005.18,0004.99
2022-03-07 21:14:00,,0826.7,5.00,0.00,22.0,21.3,00.0,31.0,23.8,08.1,0000.0,0008.16,0005.21,0005.02
2022-03-07 21:15:00,,0826.7,5.01,0.00,22.0,21.4,00.0,31.0,23.8,08.3,0000.0,0007.97,0005.22,0005.05
2022-03-07 21:16:00,,0826.7,5.00,0.00,22.0,21.4,00.0,31.0,23.7,08.6,0000.3,0007.99,0005.24,0005.07
2022-03-07 21:17:00,,0826.7,4.99,0.00,22.0,21.4,00.0,31.0,23.7,08.1,0000.3,0007.97,0005.25,0005.09
2022-03-07 21:18:00,,0826.7,5.01,0.00,21.9,21.3,00.0,31.0,23.6,07.9,0000.1,0007.95,0005.26,0005.11
2022-03-07 21:19:00,,0826.7,5.00,0.00,21.9,21.2,00.0,30.9,23.6,08.4,-001.0,0007.42,0005.26,0005.11
2022-03-07 21:20:00,,0826.6,5.00,0.00,21.9,21.2,00.0,30.9,23.6,08.6,-001.5,0007.48,0005.27,0005.10
2022-03-07 21:21:00,,0826.6,5.00,0.00,21.9,21.3,00.0,30.9,23.6,09.1,-001.3,0007.73,0005.25,0005.10
2022-03-07 21:22:00,,0826.6,5.00,0.00,21.9,21.3,00.0,30.9,23.7,08.7,-001.8,0007.71,0005.24,0005.10
2022-03-07 21:23:00,,0826.6,5.00,0.00,21.9,21.3,00.0,30.9,23.7,08.4,-001.6,0007.88,0005.27,0005.11
2022-03-07 21:24:00,,0826.6,5.00,0.00,21.9,21.3,00.0,30.9,23.6,08.1,-000.7,0008.16,0005.28,0005.12
2022-03-07 21:25:00,,0826.6,5.00,0.00,21.9,21.3,00.0,30.9,23.6,07.9,-000.5,0008.27,0005.29,0005.11
2022-03-07 21:26:00,,0826.6,5.00,0.00,21.9,21.3,00.0,30.9,23.6,08.2,-000.5,0008.29,0005.29,0005.09
2022-03-07 21:27:00,,0826.6,5.00,0.00,21.9,21.3,00.0,30.9,23.6,08.1,-000.5,0008.24,0005.26,0005.07
2022-03-07 21:28:00,,0826.6,5.00,0.00,21.9,21.3,00.0,30.9,23.6,07.9,0000.0,0008.21,0005.23,0005.05
2022-03-07 21:29:00,,0826.6,5.00,0.00,21.9,21.3,00.0,30.9,23.7,07.9,0000.0,0008.20,0005.22,0005.03
2022-03-07 21:30:00,,0826.6,5.00,0.00,21.9,21.4,00.0,30.9,23.7,08.0,0000.0,0008.15,0005.21,0005.04
2022-03-07 21:31:00,,0826.5,5.00,0.00,21.9,21.4,00.0,30.9,23.8,08.4,0000.0,0008.16,0005.22,0005.04
2022-03-07 21:32:00,,0826.5,5.00,0.00,22.0,21.4,00.0,30.9,23.8,07.9,0000.0,0007.80,0005.22,0005.05
2022-03-07 21:33:00,,0826.5,5.00,0.00,22.0,21.5,00.0,30.9,23.8,07.8,0000.0,0007.79,0005.23,0005.06
2022-03-07 21:34:00,,0826.5,5.00,0.00,22.0,21.5,00.0,30.9,23.8,08.1,0000.0,0007.65,0005.24,0005.06
2022-03-07 21:35:00,,0826.6,5.00,0.00,22.0,21.5,00.0,31.0,23.9,08.0,0000.0,0007.40,0005.24,0005.05
2022-03-07 21:36:00,,0826.5,5.00,0.00,22.0,21.5,00.0,31.0,23.8,08.1,0000.0,0007.25,0005.21,0005.05
2022-03-07 21:37:00,,0826.5,5.00,0.00,22.0,21.5,00.0,31.0,23.8,07.9,0000.0,0007.60,0005.22,0005.06
2022-03-07 21:38:00,,0826.5,5.00,0.00,22.0,21.5,00.0,31.0,23.8,08.1,0000.0,0007.72,0005.26,0005.08
2022-03-07 21:39:00,,0826.5,4.99,0.00,22.0,21.5,00.0,31.0,23.8,08.4,0000.0,0007.76,0005.29,0005.10
2022-03-07 21:40:00,,0826.5,4.99,0.00,22.0,21.5,00.0,31.0,23.8,08.6,0000.0,0007.75,0005.29,0005.11
2022-03-07 21:41:00,,0826.5,5.00,0.00,22.0,21.5,00.0,31.0,23.8,08.1,0000.0,0007.75,0005.29,0005.10
2022-03-07 21:42:00,,0826.5,5.00,0.00,22.0,21.4,00.0,31.0,23.7,07.9,0000.0,0007.73,0005.28,0005.10
2022-03-07 21:43:00,,0826.5,4.99,0.00,21.9,21.4,00.0,31.0,23.6,07.8,0000.0,0007.74,0005.28,0005.09
2022-03-07 21:44:00,,0826.5,5.00,0.00,21.9,21.4,00.0,31.0,23.7,08.1,0000.0,0007.79,0005.28,0005.09
2022-03-07 21:45:00,,0826.5,5.00,0.00,21.9,21.4,00.0,31.0,23.7,08.0,0000.0,0007.76,0005.27,0005.09
2022-03-07 21:46:00,,0826.5,5.00,0.00,22.0,21.4,00.0,31.0,23.8,08.3,0000.0,0007.82,0005.28,0005.10
2022-03-07 21:47:00,,0826.5,5.01,0.00,22.0,21.4,00.0,31.0,23.7,08.4,0000.0,0007.89,0005.29,0005.11
2022-03-07 21:48:00,,0826.5,5.00,0.00,21.9,21.4,00.0,31.0,23.7,08.1,0000.0,0007.62,0005.30,0005.12
2022-03-07 21:49:00,,0826.5,5.00,0.00,21.9,21.4,00.0,31.0,23.6,08.0,0000.0,0007.48,0005.28,0005.12
2022-03-07 21:50:00,,0826.5,5.01,0.00,21.9,21.3,00.0,31.0,23.6,08.1,0000.0,0007.48,0005.28,0005.12
2022-03-07 21:51:00,,0826.5,4.99,0.00,21.9,21.3,00.0,30.9,23.6,07.9,0000.0,0007.86,0005.30,0005.13
2022-03-07 21:52:00,,0826.5,5.00,0.00,21.8,21.2,00.0,30.9,23.5,08.1,0000.0,0008.24,0005.31,0005.14
2022-03-07 21:53:00,,0826.5,5.01,0.00,21.9,21.2,00.0,30.9,23.6,08.1,0000.0,0008.99,0005.33,0005.15
2022-03-07 21:54:00,,0826.5,5.00,0.00,21.9,21.3,00.0,30.9,23.6,07.9,0000.0,0008.92,0005.33,0005.16
2022-03-07 21:55:00,,0826.4,5.00,0.00,21.9,21.3,00.0,30.9,23.6,08.5,0000.0,0008.89,0005.32,0005.16
2022-03-07 21:56:00,,0826.4,4.99,0.00,21.9,21.3,00.0,30.9,23.6,08.5,0000.0,0008.90,0005.34,0005.17
2022-03-07 21:57:00,,0826.4,4.99,0.00,21.9,21.3,00.0,30.9,23.6,08.4,0000.0,0008.87,0005.34,0005.18
2022-03-07 21:58:00,,0826.4,5.00,0.00,21.9,21.3,00.0,30.9,23.6,08.0,0000.0,0008.83,0005.36,0005.19
2022-03-07 21:59:00,,0826.3,5.00,0.00,21.9,21.3,00.0,30.9,23.6,08.0,0000.0,0008.91,0005.36,0005.19
